Flag for Germany Weather past 2 weeks in Rotenburg (Wümme), Lower Saxony, Germany

Now
63 °F

Fog.


Feels Like: 63 °F
Forecast: 57 / 67 °F
Wind: 6 mph from Southwest

Location: Bremen

Current Time: Aug 29, 2014 at 12:09:31 PM

Latest Report: Aug 29, 2014 at 10:00 AM


Visibility: 4 mi

Pressure: 29.93 "Hg

Humidity: 87%

Dew point: 59 °F

Location of Rotenburg (Wümme)Location

Historic Weather in Rotenburg (Wümme) — Graph

°F

Rotenburg (Wümme) temperature yesterday

Maximum temperature yesterday: 74 °F (at 3:00 PM)
Minimum temperature yesterday: 47 °F (at 7:00 AM)
Average temperature yesterday: 62 °F

Past Weeks' High & Low Weather Summary

 TemperatureHumidityPressure
High74 °F (Aug 28, 3:00 PM)99% (Aug 27, 4:00 AM)30.05 "Hg (Aug 27, 4:00 AM)
Low43 °F (Aug 25, 6:00 AM)33% (Aug 27, 3:00 PM)29.53 "Hg (Aug 18, 9:00 AM)
Average57 °F79%29.86 "Hg
* Reported Aug 14 10:00 AM — Aug 29 10:00 AM, Rotenburg (Wümme), Weather by CustomWeather, © 2014

Note: Actual official high and low records may vary slightly from our data, if they occured in-between our weather recording intervals... More about our weather records

Advertising

Rotenburg (Wümme) weather history for previous 24 hours

 ConditionsComfort  
Time TempWeatherWind HumidityBarometerVisibility
10:00 AM
Aug 29
63 °FFog.6 mph87%29.93 "Hg4 mi
9:00 AM62 °FFog.5 mph92%29.92 "Hg4 mi
8:00 AM62 °FLow clouds.3 mph94%29.91 "Hg4 mi
7:00 AM62 °FLight rain. Low clouds.5 mph94%29.91 "Hg4 mi
6:00 AM61 °FLight rain. Overcast.2 mph94%29.90 "Hg7 mi
5:00 AM62 °FOvercast.2 mph90%29.90 "Hg16 mi
4:00 AM62 °FPassing clouds.2 mph89%29.91 "Hg16 mi
3:00 AM63 °FOvercast.2 mph86%29.91 "Hg19 mi
2:00 AM64 °FOvercast.2 mph85%29.93 "Hg19 mi
1:00 AM64 °FPassing clouds.3 mph85%29.93 "Hg19 mi
12:00 AM65 °FOvercast.2 mph82%29.94 "Hg19 mi
10:00 PM
Aug 28
66 °FOvercast.5 mph78%29.95 "Hg19 mi
9:00 PM69 °FOvercast.2 mph66%29.93 "Hg19 mi
8:00 PM69 °FOvercast.2 mph65%29.93 "Hg19 mi
7:00 PM71 °FPartly sunny.2 mph61%29.94 "Hg19 mi
6:00 PM74 °FPartly sunny.5 mph51%29.94 "Hg19 mi
4:00 PM74 °FPartly sunny.6 mph49%29.96 "Hg22 mi
3:00 PM74 °FPartly sunny.5 mph44%29.98 "Hg22 mi
2:00 PM74 °FScattered clouds.5 mph39%29.99 "Hg22 mi
1:00 PM71 °FPassing clouds.6 mph36%30.00 "Hg22 mi
12:00 PM70 °FPassing clouds.8 mph41%30.02 "Hg22 mi
Weather by CustomWeather, © 2014

See weather overviewHow to use our weather pages